Find Starlink 30532

NORAD ID: 58070 Int'l Des: 2023-158 Owner: SPXS Country: US Constellation: starlink operational
LEOCIRCULAR

Current View

Loading 3D Globe...

About Starlink 30532

Starlink 30532 (NORAD 58070) is a starlink constellation satellite (v2 mini) launched Oct 13, 2023 by SPXS of US. It operates in LEO, CIRCULAR orbit with a mass of 730.00 kg.

Upcoming Passes

Passes for default location (London). Set your location on the main map for personalized predictions.

Altitude History

Loading altitude history...

Two-Line Element Set

1 58070U 23158V 26235.18906978 .00001089 00000-0 49095-4 0 9994
2 58070 43.0023 166.7690 0000641 265.4361 94.6418 15.27576650159031
Epoch: Aug 23, 2026 • Age: 22 hours

Current Status

Altitude 486.1 km
Apogee / Perigee N/A
Velocity 7.63 km/s
Sub-Earth Point 40.79°N, 146.31°W
Launch Date Oct 13, 2023
Age 2.8 years
Type internet

Technical Details

Classification Payload
Mass 730.00 kg
Dry Mass 700.00 kg
Total Mass 730.00 kg
Length 0.30 m
Diameter 4.10 m
Span 29.00 m
Shape Box + pan
Manufacturer SPXS
Bus Type Starlink V2M
Phase Status In Orbit
Owner/State SPXS/US

Most Searched